Location: Center Berlin
(42.6609°N, 73.3687°W)
Time: 20:51:39
(UTC+00:00)

Iridium 4 Rocket - Pass Details

Date: 10 September 2024
Orbit: 581 x 893 km, 86.9° (Epoch: 13 October)

Event Time Altitude Azimuth Distance (km) Brightness Sun altitude
Rises 23:45:24 0° 4° (N) 2,850 6.6 -7.0°
Reaches altitude 10° 23:47:43 10° 11° (NNE) 1,923 5.6 -7.5°
Maximum altitude 23:51:42 42° 84° (E) 833 3.3 -8.2°
Drops below altitude 10° 23:55:38 10° 156° (SSE) 1,900 5.2 -8.9°
Sets 23:57:54 0° 163° (SSE) 2,811 6.1 -9.3°
